Wind_Speed
18 15 12 14 17 15 13 15 19 22 22 22 20 18 19 20 19 19 18 18 18 18 17 15 15 14 14 14 16 17 15 14 13 13 14 13 11 12 11 11 12 11 11 11 11 11 12 12 11 10 9 10 11 10 9 11 14 17 17 16 18 17 16 18 15 11 10 11 12 12 12 13 11 5 3 2 2 1 1 2 2 4 4 5 5
17 14 14 15 15 14 13 14 17 19 20 20 18 16 17 18 18 18 18 17 17 16 16 15 14 13 13 13 13 13 13 13 11 11 12 11 9 8 9 11 12 10 9 9 9 9 9 9 9 9 9 11 11 10 10 13 15 16 17 17 17 15 13 15 16 12 10 10 12 12 11 11 11 8 2 0 2 3 5 5 4 3 2 2 4
12 10 11 12 12 12 13 13 15 16 16 17 16 16 17 17 17 17 17 17 16 15 15 14 13 13 12 12 11 10 11 11 9 9 10 10 8 9 11 11 9 8 8 9 9 8 8 9 8 8 9 10 10 10 11 13 13 14 16 17 15 12 10 11 13 12 11 11 11 10 9 9 11 11 4 1 1 5 7 8 7 6 4 1 3
10 11 12 11 9 10 10 11 14 14 12 13 13 13 16 16 15 16 16 16 16 15 14 14 13 12 11 11 10 10 11 10 9 10 10 10 9 8 10 10 8 7 8 10 10 9 9 9 8 7 8 7 8 9 9 12 13 14 14 13 12 12 11 9 9 12 13 11 10 11 8 7 10 11 7 2 1 3 5 7 8 7 3 1 3
13 16 15 12 11 10 9 10 13 13 10 12 13 12 14 15 14 15 16 15 15 13 13 13 12 11 11 12 12 13 13 13 12 12 11 10 10 9 8 8 7 5 5 7 9 9 9 8 7 7 7 6 7 7 7 9 10 12 12 11 10 11 11 9 7 9 11 9 9 11 6 4 7 10 9 5 2 1 1 2 4 3 3 3 5
16 16 15 14 15 14 15 14 14 16 15 16 17 17 17 16 15 16 15 14 14 11 11 12 11 11 11 12 13 12 13 14 13 11 11 10 10 9 7 7 6 5 4 5 6 6 6 7 7 6 6 6 6 5 4 5 7 8 9 8 8 9 10 9 8 8 10 8 8 8 4 3 4 5 5 4 1 2 1 3 5 5 3 3 5
17 17 19 22 21 17 15 15 16 20 20 18 17 16 18 18 16 16 14 13 13 12 13 14 14 13 12 11 11 10 11 13 13 11 11 10 10 9 7 7 7 7 7 7 7 7 7 8 6 5 5 5 5 4 3 4 6 7 8 7 6 7 9 10 10 8 7 6 5 4 3 4 4 2 3 3 1 1 2 4 4 1 2 3 4
17 17 17 21 22 17 13 14 17 19 18 15 13 12 15 18 17 16 15 15 15 14 15 16 15 15 13 12 10 9 10 13 13 11 10 9 9 8 7 7 8 8 8 9 8 8 8 9 7 5 5 4 4 4 4 5 5 6 6 6 4 4 5 6 7 7 5 4 2 0 1 3 2 2 3 4 3 1 1 2 2 4 5 5 6
16 18 17 17 19 16 13 13 17 17 14 13 13 9 9 14 16 16 16 17 16 15 15 14 14 14 13 11 10 9 10 11 13 13 11 9 9 8 6 6 7 9 9 9 9 8 8 9 7 5 5 4 4 5 6 6 5 4 4 3 2 2 2 1 2 3 3 2 2 2 2 4 4 4 4 3 2 1 1 3 4 4 6 7 8
14 17 16 13 12 13 14 14 16 19 18 16 16 14 12 14 16 16 15 16 17 16 15 13 12 12 11 10 9 9 9 9 10 11 11 9 8 6 5 6 7 8 9 9 9 9 8 7 7 6 5 5 5 6 6 6 5 4 3 2 2 2 1 1 1 0 1 2 3 4 4 4 3 3 4 4 3 2 1 2 3 5 7 9 9
14 15 13 9 8 9 11 10 11 16 18 16 17 19 17 12 12 14 13 13 15 15 14 13 11 10 9 9 9 10 9 8 8 10 10 9 7 5 5 5 5 6 8 8 9 9 8 7 7 6 5 5 5 6 5 4 3 3 3 3 4 5 4 3 2 2 2 2 3 4 5 5 3 4 5 5 3 2 1 2 3 5 7 8 9
15 14 12 10 9 9 11 12 11 12 14 15 16 18 16 10 8 11 11 11 13 13 12 11 10 9 9 10 11 11 10 9 9 10 10 8 7 5 6 6 6 7 8 9 9 9 9 9 8 7 7 7 7 7 6 5 3 2 1 3 5 5 6 6 5 5 3 2 2 3 4 4 4 3 3 3 3 3 3 5 6 7 8 9 11
15 14 12 12 12 13 13 14 13 11 10 12 15 16 17 16 13 11 11 11 12 13 12 11 11 11 11 12 12 11 10 9 9 10 10 9 8 7 7 8 8 8 10 11 10 9 10 11 11 10 9 8 7 7 7 6 5 4 2 2 2 2 2 4 5 5 5 4 2 1 1 1 1 1 2 3 4 6 7 9 10 10 11 12 13
14 14 13 12 10 9 9 8 8 9 9 12 15 17 18 18 16 13 12 13 13 13 13 12 12 11 12 12 12 11 10 9 9 10 11 11 11 10 9 8 8 7 8 9 9 9 10 12 13 12 10 9 9 9 7 6 6 5 4 4 4 4 3 2 1 3 4 5 5 4 2 1 1 1 3 6 9 10 11 12 13 13 14 14 13
12 12 12 11 11 11 11 8 7 8 10 11 13 13 13 14 13 12 13 14 13 13 13 12 12 12 13 13 13 11 10 10 11 12 13 14 13 11 10 10 10 10 10 11 11 11 12 14 15 12 11 10 10 9 7 6 4 2 2 3 4 4 4 5 5 3 1 1 1 1 3 2 0 3 7 10 12 13 13 13 14 14 14 13 13
15 13 10 8 10 15 19 19 16 15 14 13 11 11 12 11 11 11 12 13 12 11 13 13 13 15 15 13 12 12 13 14 14 14 15 14 13 12 12 12 14 14 14 13 13 13 14 16 16 13 11 10 9 7 6 6 5 3 2 2 2 2 2 4 5 4 3 3 2 1 1 2 5 7 10 12 13 13 13 13 13 12 11 11 12
26 23 21 18 13 9 12 18 20 20 19 18 16 14 14 14 13 12 12 13 12 11 12 13 14 15 15 13 14 16 17 17 15 15 15 14 14 14 13 14 16 14 12 12 11 12 13 14 14 12 10 9 7 6 5 5 3 2 2 4 4 2 2 3 3 3 2 1 1 1 3 6 8 10 10 10 10 11 11 11 10 8 8 9 9
30 30 29 27 25 22 17 11 8 9 12 15 15 15 15 15 15 14 13 13 13 13 13 13 14 14 14 13 15 16 16 15 14 14 14 15 17 15 12 14 18 17 13 12 11 10 11 11 9 9 8 7 4 3 3 4 4 1 2 6 7 4 4 4 3 2 2 1 2 4 7 9 9 9 9 9 9 9 10 9 8 7 8 8 9
26 26 26 25 24 24 23 21 18 14 9 3 5 9 11 11 12 13 13 13 13 13 14 14 14 14 13 12 13 14 14 14 14 14 15 16 17 13 8 12 19 18 15 14 13 12 12 11 8 7 6 4 2 1 1 2 3 1 3 7 10 6 4 4 4 2 1 3 5 8 9 8 8 9 9 10 11 12 12 10 9 8 8 9 10
22 21 21 21 20 21 21 21 20 19 16 14 9 3 3 7 10 12 12 12 13 14 15 17 17 18 16 14 13 14 15 15 15 15 15 16 15 11 8 13 20 20 17 16 16 14 14 13 10 8 6 3 2 2 2 3 3 4 5 8 10 7 4 3 2 2 3 5 7 7 6 7 8 9 9 10 11 12 12 10 9 9 8 9 10
19 19 18 18 19 19 19 19 19 18 18 16 14 10 7 2 5 9 9 10 11 13 16 19 20 21 21 19 16 15 16 16 15 15 15 15 14 11 9 12 19 22 20 18 18 17 16 15 13 10 8 6 4 3 3 3 3 3 4 5 6 5 4 4 5 6 6 5 4 4 5 6 8 7 6 5 6 7 8 7 7 7 7 7 9
18 17 17 17 17 17 17 16 16 17 17 17 16 14 12 9 6 3 5 7 7 7 10 15 19 23 26 25 21 18 17 16 15 15 16 15 13 11 9 10 16 23 23 21 21 19 18 17 16 13 10 7 5 3 3 3 3 2 1 1 1 1 1 2 4 5 4 2 2 3 5 6 6 6 6 7 8 8 8 7 7 6 6 6 7
15 14 14 14 14 14 14 14 14 15 16 16 17 16 15 14 12 9 8 9 10 9 5 6 12 20 27 27 25 22 20 19 17 15 15 15 14 12 10 8 12 19 23 24 23 21 20 19 17 15 11 8 6 5 5 4 4 3 1 2 3 3 3 1 0 1 1 1 2 4 4 4 4 4 6 8 9 8 8 7 7 7 7 8 8
14 13 13 14 14 14 14 14 14 15 16 16 17 17 17 17 15 14 13 11 13 15 13 8 8 15 22 25 25 23 21 19 18 16 15 15 15 15 13 9 8 12 18 22 22 22 21 20 18 15 12 11 9 7 6 5 5 3 2 2 3 2 0 2 3 2 1 1 3 3 2 2 3 3 5 6 6 6 6 7 8 8 9 9 9
14 14 15 15 16 16 16 15 15 16 17 17 17 18 18 18 18 18 17 14 12 13 15 15 11 15 21 23 22 23 22 21 20 19 17 17 17 16 14 12 9 9 14 19 20 21 22 20 17 15 13 11 9 8 7 6 5 4 3 3 2 2 4 4 2 1 1 2 4 3 3 3 3 4 5 7 9 10 10 10 11 11 12 12 12
14 15 16 16 17 17 17 17 17 18 18 18 18 18 19 19 20 19 18 17 15 14 16 19 17 13 16 18 19 21 23 24 25 24 22 20 20 18 15 12 9 8 12 16 17 19 21 19 16 14 13 10 8 7 6 5 4 3 2 2 3 5 5 3 1 3 3 3 2 2 3 2 3 5 8 10 11 11 11 13 14 16 17 18 18
12 14 15 16 16 16 16 17 18 18 19 19 19 20 20 20 21 21 20 19 17 16 19 22 20 16 13 14 16 18 20 23 26 27 25 22 21 19 15 11 8 8 11 14 17 19 20 18 15 14 12 10 8 7 6 5 4 4 4 5 6 5 3 1 2 3 3 2 1 1 2 4 6 8 10 10 10 10 12 14 16 17 18 19 19
13 14 15 16 16 16 16 18 19 20 20 19 19 19 20 22 23 24 23 22 19 18 18 18 19 17 14 11 10 10 10 13 17 22 25 24 22 20 16 11 7 7 9 12 15 19 19 17 16 14 12 11 10 8 7 6 6 7 7 7 7 6 4 3 3 2 1 1 1 2 5 7 8 8 9 10 10 11 14 15 15 14 16 16 16
18 17 17 18 18 19 19 19 20 21 22 22 21 19 19 22 23 24 24 23 21 20 19 17 16 16 16 15 13 11 12 14 14 14 16 18 19 20 19 13 9 8 9 12 15 19 19 17 16 14 13 12 11 9 9 9 10 10 9 7 6 6 5 5 4 4 3 3 4 5 7 7 7 8 9 10 11 12 14 15 14 13 14 15 15
21 21 20 20 21 22 22 22 22 22 23 25 25 22 21 23 23 21 22 23 23 21 18 16 17 18 19 22 23 23 22 22 20 18 19 21 22 24 23 19 13 10 11 13 15 16 16 15 14 14 14 13 11 11 12 13 13 12 11 9 6 5 4 4 4 3 3 4 4 6 7 7 7 8 9 9 9 11 13 14 13 13 14 14 14
20 20 20 21 22 23 23 22 23 23 23 25 26 25 25 26 25 22 22 23 23 23 20 15 15 17 20 22 24 24 24 24 22 22 23 24 25 26 28 26 20 17 15 15 14 12 12 13 14 15 15 14 13 13 14 15 14 13 13 11 8 5 4 4 4 4 4 4 5 5 5 5 6 6 6 7 9 11 13 13 12 13 14 13 13
18 18 19 20 21 22 22 21 21 22 23 24 24 24 25 26 26 26 24 22 21 21 20 16 13 13 16 19 19 19 20 20 19 20 22 23 25 29 31 30 27 24 20 17 15 13 14 18 18 17 16 15 15 15 15 15 15 15 14 11 9 7 6 5 5 5 3 3 2 2 3 4 5 5 6 8 10 12 13 13 14 14 14 13 12
15 16 17 18 19 19 19 19 20 20 20 21 23 24 24 24 25 26 25 23 21 18 15 13 11 9 11 14 15 16 15 16 17 20 22 22 24 28 31 31 31 28 23 19 18 19 21 22 21 18 18 18 17 15 15 16 16 15 12 9 8 9 8 7 6 5 3 2 1 1 4 5 7 8 8 9 9 10 11 11 11 11 11 11 11
12 13 13 14 16 17 16 16 17 18 19 20 23 25 25 23 23 25 24 22 20 17 12 9 8 7 6 8 11 13 14 16 18 20 22 24 26 30 31 29 29 29 27 25 25 25 23 21 19 17 18 19 18 17 17 17 16 14 11 8 8 10 10 8 5 3 2 2 2 3 5 6 7 8 8 8 8 7 7 8 9 10 12 12 13
10 11 10 11 13 14 14 15 16 18 20 22 23 24 23 22 22 22 20 18 17 15 11 8 5 3 2 3 7 8 8 10 14 16 18 19 22 26 28 27 26 26 25 26 26 22 19 18 17 17 19 20 20 19 19 16 13 12 11 10 9 10 10 6 3 1 2 3 5 5 4 4 5 6 7 7 7 6 7 8 10 12 13 13 14
9 9 9 10 11 13 14 16 18 19 20 20 20 19 17 18 19 19 18 17 16 13 11 10 7 4 4 5 8 9 9 9 10 12 13 12 13 16 19 21 23 23 21 22 23 21 19 18 17 19 22 22 22 21 17 14 13 12 12 11 10 9 7 4 1 1 2 4 4 4 4 5 6 7 7 7 6 6 8 9 10 11 12 13 15
8 8 9 10 12 14 15 15 16 17 17 16 15 15 15 16 17 17 17 18 17 14 12 10 9 6 6 9 10 9 9 9 9 10 11 10 11 13 13 15 18 20 21 23 25 24 22 19 17 19 22 24 23 19 16 14 13 12 11 11 10 7 5 3 2 3 4 4 3 3 4 5 7 8 7 7 7 8 8 9 9 11 13 14 15
8 9 10 11 11 11 12 13 13 14 15 14 13 13 15 16 16 16 15 15 15 16 14 8 9 9 7 9 10 9 10 11 10 9 8 8 10 13 14 15 18 21 23 26 27 23 19 17 17 20 23 22 19 16 15 14 13 12 11 9 7 5 4 4 4 5 5 3 2 2 4 6 8 8 8 8 9 9 8 8 9 11 13 15 16
8 9 10 9 8 9 11 11 12 14 15 15 14 14 14 15 15 15 15 13 13 15 13 5 7 10 7 5 6 8 10 12 11 10 9 11 12 14 15 15 15 17 19 20 20 17 14 14 18 22 21 18 16 15 15 13 12 11 8 6 5 6 6 6 7 7 5 2 1 2 5 6 7 7 7 7 8 8 8 8 10 11 13 16 17
10 11 9 8 9 10 10 9 10 13 15 16 15 14 13 14 14 13 13 12 11 11 11 8 2 5 5 3 3 6 8 9 9 10 12 14 16 17 16 12 10 12 14 14 15 15 14 15 21 22 20 18 17 17 15 14 12 10 9 8 9 9 9 9 8 6 3 1 1 3 4 4 5 6 6 6 7 7 7 6 9 12 14 16 17
12 12 10 9 10 10 9 9 10 13 15 16 15 15 13 13 13 12 11 11 10 9 8 9 7 5 4 4 4 4 6 8 8 8 8 10 11 13 16 13 9 9 12 12 13 13 14 17 20 20 20 20 20 19 16 13 11 11 12 12 11 11 9 7 5 2 1 1 2 2 3 3 3 4 5 5 6 5 4 5 9 13 15 15 16
11 11 10 8 8 10 10 10 11 13 15 16 16 15 13 12 11 12 12 11 11 9 8 7 6 4 4 4 3 4 8 11 10 7 6 4 1 4 10 11 9 10 14 16 16 17 18 18 17 18 20 20 19 18 15 13 12 13 13 11 9 7 5 3 1 1 1 2 1 1 1 2 2 3 4 4 4 4 5 8 12 14 14 14 15
8 9 8 8 10 11 11 10 10 11 14 15 14 13 13 12 11 11 12 12 11 10 9 7 5 4 3 3 3 3 9 14 12 9 8 4 2 3 7 10 13 16 18 17 17 18 19 18 19 20 20 19 18 17 15 13 12 11 9 6 5 4 3 3 3 2 2 2 1 1 1 2 1 1 1 1 2 4 8 11 13 13 12 13 14
6 5 6 9 9 8 8 8 7 9 12 12 12 13 13 13 12 12 12 11 11 10 8 7 6 4 3 3 3 5 10 14 14 13 11 10 11 13 16 17 18 19 19 18 18 20 20 21 22 22 20 19 18 16 14 12 9 7 5 4 4 4 4 4 4 4 4 4 3 2 3 3 1 3 3 1 3 6 10 12 12 12 12 12 14
3 2 5 6 5 4 5 5 4 7 9 10 11 12 12 12 13 13 12 11 11 11 10 10 10 10 9 9 9 11 14 18 19 19 19 20 21 22 22 22 21 21 22 24 24 23 23 23 23 21 20 18 16 14 12 9 6 4 4 4 4 3 3 2 3 4 4 5 4 3 3 4 1 3 3 0 5 8 10 11 12 13 14 16 18
3 3 4 3 2 3 5 4 3 4 7 9 10 11 11 12 13 12 12 13 13 14 15 16 16 17 17 18 18 20 22 24 26 26 26 27 27 26 26 26 26 26 26 26 25 24 23 21 20 18 16 14 12 10 8 7 6 5 5 4 2 1 1 2 3 3 3 4 4 3 3 3 2 3 2 2 6 8 8 9 11 15 17 18 19
3 3 2 2 2 3 4 4 3 4 6 9 11 11 11 12 12 12 13 15 15 16 18 19 19 20 21 21 22 23 24 26 27 27 26 26 25 26 27 26 26 26 26 24 23 21 19 17 15 13 11 9 8 8 7 6 5 5 4 2 1 2 2 3 3 4 3 3 3 3 3 2 3 3 2 3 6 6 6 8 12 17 19 19 18
4 2 3 3 2 2 1 2 3 3 4 8 11 12 12 11 11 12 13 15 17 18 18 18 19 20 21 21 21 22 23 24 24 24 23 22 22 22 22 21 21 20 19 19 18 16 15 14 13 11 9 8 7 7 6 4 4 3 2 2 2 2 3 3 3 4 3 3 3 3 3 2 3 3 2 3 4 5 7 10 14 17 19 17 13
3 4 5 4 3 3 3 2 1 4 4 6 9 12 12 12 11 11 13 14 16 17 17 17 18 18 19 20 20 20 21 22 22 22 21 20 19 18 17 17 16 15 15 15 14 13 12 12 11 9 8 8 7 5 4 3 3 3 2 2 3 4 4 4 4 4 4 3 3 3 3 2 2 2 2 3 4 6 10 13 14 16 17 15 11
4 4 4 3 3 4 6 7 5 6 7 6 8 10 11 12 12 12 13 13 15 16 15 15 15 15 15 16 16 17 18 20 20 20 19 18 18 17 17 16 16 16 15 15 14 12 11 10 9 9 8 8 6 4 4 4 4 3 3 4 6 7 7 6 6 6 6 5 4 3 3 3 3 4 4 5 6 9 12 12 12 14 16 13 10
2 2 3 3 3 5 6 9 10 9 9 9 9 10 10 11 11 12 12 13 13 13 12 11 11 12 12 12 12 13 14 16 17 17 17 18 18 18 17 16 16 16 16 15 14 12 11 10 9 8 7 6 5 5 5 5 5 5 6 7 8 8 8 8 9 9 8 7 5 4 4 4 5 6 6 6 7 9 11 11 11 12 13 12 10
Wind_Direction
169 160 153 151 153 142 130 145 155 155 156 155 151 153 159 163 163 160 158 159 153 148 148 145 143 143 140 140 138 134 134 131 128 130 128 125 124 127 128 122 118 118 116 110 106 111 115 108 104 101 97 95 84 69 69 83 94 92 92 113 131 137 135 125 120 126 134 144 153 160 171 174 172 158 104 155 180 150 204 202 149 123 82 54 40
163 152 152 148 141 131 125 134 144 146 147 151 151 150 153 159 162 161 159 159 156 151 150 149 149 148 144 144 141 137 138 135 132 134 131 127 117 111 122 125 119 116 118 118 110 106 110 107 103 101 97 91 82 74 78 93 102 99 99 116 129 132 138 137 136 143 151 155 156 162 174 180 182 181 159 225 219 223 239 242 218 191 159 45 18
173 145 138 135 130 126 121 122 135 144 146 152 162 167 164 162 163 164 162 161 159 155 153 152 152 152 149 146 142 137 137 133 132 136 131 127 118 100 109 124 124 114 119 128 123 111 106 101 96 102 105 92 80 84 86 85 95 103 104 112 115 114 127 142 147 155 161 162 166 174 182 187 189 191 198 297 265 237 252 261 250 233 225 245 351
192 172 162 155 147 135 125 123 130 141 154 160 167 181 180 171 166 166 166 164 161 157 155 156 157 157 155 154 153 150 148 141 131 131 132 134 140 134 127 132 131 117 117 130 135 131 125 114 104 109 116 100 85 96 95 82 89 102 103 103 100 96 104 123 145 164 168 167 173 180 183 186 191 197 205 226 247 234 265 274 253 238 234 271 357
184 184 178 169 164 161 168 164 146 149 166 170 179 195 187 176 173 174 172 168 164 161 161 161 161 160 160 165 167 162 160 153 136 131 143 152 157 159 154 149 148 139 132 143 151 149 140 132 128 130 133 114 95 101 102 90 94 101 100 98 96 95 99 99 115 152 161 164 173 177 180 183 184 190 196 196 170 151 306 278 213 166 88 43 16
171 180 183 180 181 183 191 188 169 167 172 172 184 196 188 179 179 178 175 170 167 168 168 170 171 169 169 175 176 170 165 159 149 148 164 174 175 177 176 175 183 193 197 191 189 182 162 151 149 147 147 137 122 118 110 101 104 106 105 104 102 101 97 88 95 127 139 144 159 168 170 163 163 167 172 173 125 80 114 163 154 127 77 23 11
162 173 185 192 195 190 187 190 184 180 178 172 177 188 188 185 180 175 176 173 172 177 178 177 180 182 182 184 182 179 176 176 175 173 175 182 190 193 192 198 209 217 227 232 226 218 199 185 179 163 160 159 150 152 144 122 116 111 113 119 115 104 89 83 94 107 111 120 142 162 170 172 179 184 184 200 267 32 129 159 156 116 341 338 344
149 157 172 190 196 186 177 184 184 181 180 170 163 171 186 191 185 179 181 181 180 182 179 174 177 183 191 194 186 173 175 187 195 193 186 190 202 208 210 221 229 228 235 242 234 225 213 203 198 183 179 183 171 170 170 150 135 120 118 125 127 115 91 83 94 91 79 90 110 196 221 202 210 230 226 226 239 279 244 252 313 338 332 324 325
134 142 156 180 188 183 180 184 180 180 182 172 158 148 165 184 188 189 190 187 182 179 176 171 173 180 188 193 190 180 178 191 203 206 206 208 212 215 214 225 239 239 241 242 231 220 211 200 194 184 178 177 171 171 171 164 160 149 132 125 116 114 104 92 102 86 73 77 60 7 290 271 264 246 233 223 193 142 206 282 314 332 319 310 318
127 132 150 172 178 176 180 180 178 184 187 178 168 163 165 177 184 187 185 180 176 177 177 175 176 183 186 186 192 196 191 192 203 212 216 216 213 215 225 238 243 237 235 230 213 202 198 186 171 161 161 165 166 164 166 169 172 174 175 196 251 244 201 156 159 160 94 71 54 37 13 341 299 223 180 153 145 164 211 278 303 315 314 311 310
126 121 136 162 175 179 181 173 171 182 189 186 180 180 182 181 180 182 181 178 177 179 183 182 181 187 192 191 197 202 198 192 199 209 215 214 210 212 220 222 214 206 206 201 187 181 178 162 144 136 143 156 162 164 166 172 179 197 226 245 246 238 223 202 195 200 173 107 71 49 45 50 70 120 127 119 116 124 63 353 336 329 332 330 317
122 122 129 142 149 159 170 168 161 169 185 192 189 190 196 200 193 187 186 187 187 187 189 189 188 192 198 202 206 209 211 211 208 211 214 213 215 217 201 182 171 173 177 176 173 172 167 154 137 125 129 136 136 138 138 129 124 137 197 226 227 226 222 213 201 195 184 143 96 49 50 73 98 107 99 86 63 37 9 354 348 340 336 331 320
121 129 136 144 147 150 158 161 159 160 177 188 186 189 201 211 215 205 192 192 193 193 196 197 196 196 197 200 204 207 213 213 205 208 210 198 188 186 175 160 154 156 159 162 168 172 166 155 145 139 142 145 143 139 130 114 107 105 113 161 189 200 224 231 227 230 240 242 248 320 13 78 117 81 41 27 358 345 341 339 338 334 328 323 319
123 120 121 133 140 143 152 159 161 161 169 178 182 187 195 204 211 207 194 193 192 189 192 196 197 197 197 202 210 214 215 206 195 197 193 177 168 166 163 159 160 161 161 166 176 182 172 161 156 154 153 155 155 149 133 115 108 94 81 93 95 81 65 38 320 273 270 271 272 268 244 216 166 1 344 339 334 333 334 332 330 326 321 318 315
120 119 123 138 140 138 146 157 169 176 178 180 184 190 196 201 207 204 197 196 196 194 197 202 208 212 213 215 218 215 205 189 179 177 172 163 157 155 152 154 155 150 147 151 159 166 168 168 167 159 147 143 144 143 133 124 130 122 85 93 93 74 59 58 63 58 29 340 299 200 177 188 295 326 326 328 329 329 328 325 322 316 313 313 314
76 89 101 128 149 158 166 171 173 177 180 182 186 196 202 205 208 205 202 204 203 202 205 207 210 212 212 211 205 193 178 168 165 166 167 166 165 160 155 156 155 148 143 143 142 142 153 167 168 157 149 146 139 139 139 130 137 161 184 187 143 92 70 71 80 88 90 94 112 143 189 295 320 322 322 322 321 320 318 314 310 308 310 318 323
40 44 46 48 60 99 156 173 176 177 178 179 183 188 191 194 194 190 190 196 198 198 198 196 198 201 197 187 178 171 165 163 166 170 174 179 178 172 163 160 161 158 151 148 143 136 143 159 163 153 150 151 142 146 162 159 150 148 173 197 199 166 115 94 88 99 111 133 176 284 320 326 328 327 325 323 321 320 318 313 310 310 320 323 322
29 29 29 32 37 42 50 76 118 154 173 184 189 186 181 184 189 188 186 188 189 190 187 182 184 190 186 175 170 168 167 170 173 178 182 182 181 178 168 159 160 161 160 158 155 149 146 151 157 154 146 142 139 145 173 197 216 241 173 185 190 167 112 101 95 99 100 82 10 345 342 341 343 344 342 339 335 330 323 317 309 306 314 318 317
23 23 21 23 27 30 34 39 42 46 55 81 179 183 179 180 182 183 185 185 183 183 183 181 182 185 180 175 176 177 179 180 181 181 182 183 185 186 181 171 166 165 167 165 157 158 161 159 165 173 162 146 156 159 151 198 201 137 130 170 176 167 128 110 105 104 67 2 347 344 348 354 357 353 346 339 331 323 319 312 300 295 306 322 331
15 15 13 14 17 18 20 22 23 26 27 22 24 54 162 188 187 186 188 191 190 188 187 188 190 191 190 189 188 190 191 189 186 185 186 191 196 194 183 178 175 173 174 173 164 162 168 172 177 186 186 178 167 157 157 172 155 111 110 143 158 162 159 151 164 251 296 320 335 349 3 4 353 341 334 327 318 311 308 303 292 288 299 317 331
12 10 5 3 3 2 2 5 7 9 7 2 4 11 16 29 187 194 200 201 198 198 200 203 202 199 196 196 194 193 194 191 188 190 194 200 204 202 193 188 187 186 183 180 176 173 173 177 181 182 180 174 164 160 168 173 164 137 117 126 141 159 182 214 249 271 286 305 336 357 356 352 350 350 352 352 345 335 333 332 327 322 323 327 333
8 5 2 358 356 353 349 349 352 353 352 350 349 347 349 352 343 293 253 237 225 211 204 212 215 208 200 199 198 194 193 195 194 194 201 208 210 204 197 191 192 194 189 183 183 184 181 180 180 174 170 167 165 177 194 190 188 191 165 59 47 29 286 269 269 279 290 304 336 337 335 345 3 23 34 35 32 22 11 6 1 352 345 342 344
4 4 3 359 355 349 342 339 339 338 336 338 339 336 333 332 329 317 298 277 265 260 244 223 220 209 199 196 197 194 192 196 199 199 204 213 217 211 201 184 183 194 195 190 188 188 184 179 175 170 170 173 177 187 197 198 204 220 265 327 340 343 339 336 66 50 337 334 334 333 341 359 14 22 21 23 30 35 31 22 7 352 343 337 335
2 4 3 360 356 352 344 336 334 333 332 331 331 328 325 322 318 310 302 289 270 262 260 251 221 202 197 196 197 197 197 199 205 208 209 214 220 219 213 199 178 186 195 192 190 190 186 179 172 170 173 177 180 185 191 195 207 225 256 302 316 320 147 136 121 101 85 37 8 9 40 46 19 5 0 358 1 3 2 0 355 351 348 340 333
0 360 358 355 352 350 346 341 337 333 331 330 330 330 327 321 316 309 300 284 265 261 268 268 242 204 197 198 198 200 202 202 206 211 211 214 219 220 218 213 197 183 185 186 188 189 184 175 170 170 173 176 178 180 186 194 204 224 254 279 277 176 156 148 124 19 338 356 9 39 90 75 30 9 346 326 318 317 319 322 328 333 336 334 328
358 355 352 347 343 342 341 340 337 334 331 328 326 326 327 324 321 316 307 290 271 260 265 269 261 229 205 202 204 208 210 208 208 209 208 207 209 211 213 215 209 192 179 176 180 182 177 171 170 171 171 175 180 182 186 194 203 217 227 202 170 163 161 156 4 341 330 341 16 79 95 47 352 331 321 316 319 326 329 328 330 333 337 336 332
353 354 353 348 344 342 339 335 335 335 334 331 327 323 322 322 319 317 315 308 291 269 255 253 255 254 241 220 212 215 217 214 209 205 203 202 202 202 205 211 210 195 179 173 175 177 174 171 172 173 173 176 180 185 191 192 190 182 158 146 154 164 169 185 331 327 323 340 43 85 17 337 325 321 323 327 335 340 339 337 337 338 341 342 339
355 354 351 348 347 346 344 343 344 343 341 340 337 332 329 326 321 314 310 308 304 296 281 262 247 240 231 210 192 194 208 215 214 210 206 204 201 199 202 212 220 205 185 175 174 174 173 173 172 172 176 179 180 183 184 174 166 163 154 147 157 177 197 230 262 277 297 316 320 328 330 330 330 334 340 345 347 346 343 343 342 340 340 340 338
6 4 357 355 357 358 359 357 354 351 351 350 347 343 341 338 331 321 313 309 305 300 291 273 249 235 228 219 214 211 208 205 211 222 224 218 214 211 208 211 226 224 202 189 182 175 172 175 176 175 179 184 185 184 177 167 165 168 166 163 167 179 192 211 223 224 236 272 300 320 327 329 334 342 346 346 346 344 343 342 341 337 333 329 326
6 6 3 3 3 2 1 360 354 350 350 351 350 348 348 348 345 339 334 330 323 313 296 270 250 245 241 235 234 238 236 229 229 242 249 242 234 224 209 202 212 219 202 191 188 181 177 180 185 187 189 191 192 191 184 177 175 177 180 185 193 197 194 200 212 220 236 267 298 319 324 324 330 337 341 343 346 345 343 343 342 336 328 321 319
360 359 359 359 357 357 357 356 353 349 345 345 348 349 347 347 347 347 348 346 338 327 314 286 258 248 245 241 240 243 245 244 246 248 244 235 225 214 202 197 203 214 213 203 193 187 193 203 204 200 200 202 200 197 193 189 188 191 192 195 206 220 216 218 236 249 261 278 299 318 323 322 325 330 334 340 344 345 343 340 334 327 320 316 316
356 354 353 351 351 354 355 352 350 348 345 342 344 347 347 344 341 341 347 350 345 333 321 305 282 256 245 245 245 240 236 237 238 234 227 219 211 205 202 199 199 205 211 205 196 203 219 221 214 208 208 207 201 199 202 200 196 193 191 191 201 215 214 211 217 221 230 255 276 308 324 326 323 318 320 330 338 340 337 332 328 327 324 322 323
351 350 348 347 347 348 348 348 349 348 348 346 344 344 345 341 335 333 337 342 345 338 323 310 300 275 247 238 239 240 235 225 217 213 214 213 208 205 204 202 200 201 201 194 196 210 218 216 215 216 213 208 207 209 207 196 185 181 180 180 189 196 190 180 176 170 157 160 185 304 319 318 317 314 318 326 331 335 338 340 344 349 348 344 342
346 347 344 342 341 342 342 345 346 345 344 343 341 341 342 341 338 332 327 331 341 343 330 315 309 299 272 239 234 238 233 218 208 208 212 215 211 207 202 198 197 200 200 196 199 206 210 211 215 217 215 215 216 208 193 182 178 178 179 177 174 173 169 163 156 138 82 74 53 359 334 322 321 324 329 334 336 344 358 5 5 3 359 353 346
343 346 344 338 337 340 342 341 340 338 337 335 336 340 344 348 349 345 337 335 341 340 329 322 318 303 274 221 211 213 215 210 207 205 205 207 207 204 198 190 187 188 190 192 195 198 202 206 211 217 224 224 211 192 180 178 180 180 179 177 171 165 165 163 151 84 52 71 63 38 19 13 5 359 357 358 1 11 18 12 5 0 354 345 337
340 338 336 333 328 327 328 326 326 329 332 333 336 342 348 351 352 353 354 354 351 341 322 308 295 262 213 189 177 169 163 159 165 178 183 186 192 189 179 174 177 180 181 189 196 200 202 206 213 223 225 212 193 180 178 179 178 178 183 186 178 168 166 167 138 83 98 95 72 39 25 29 24 16 14 18 24 25 18 10 5 356 341 330 329
335 326 320 320 319 319 321 323 327 335 343 348 351 352 353 349 345 345 350 355 356 351 333 303 279 258 218 197 190 188 186 178 171 173 176 180 187 182 167 166 179 184 187 194 201 202 202 207 215 215 203 188 176 173 176 175 174 177 181 180 177 174 178 187 166 129 120 108 73 32 13 7 1 358 2 11 14 14 12 5 349 332 325 326 329
331 320 317 320 323 326 333 340 351 1 7 7 3 356 351 350 348 348 350 350 351 356 354 320 268 259 240 211 204 203 199 193 185 179 182 195 199 189 183 190 196 195 195 199 199 198 202 212 211 195 180 171 167 170 175 175 174 174 169 167 174 188 197 196 178 155 140 125 84 34 5 356 358 0 5 10 8 2 357 349 335 328 329 332 330
336 333 332 335 340 346 353 5 21 26 21 14 9 3 360 359 358 356 355 351 347 355 5 353 241 235 234 222 213 209 206 205 202 199 216 235 228 205 197 205 213 214 212 207 203 205 214 209 189 173 165 162 165 171 173 168 162 163 166 171 179 179 171 166 163 156 142 126 78 21 358 358 13 21 19 13 1 350 347 345 339 334 334 333 330
353 358 2 4 4 7 17 36 44 34 24 19 14 11 11 11 6 1 359 357 356 2 18 37 108 191 198 196 194 196 200 205 204 204 215 226 225 214 206 204 211 219 221 219 218 221 213 186 168 162 160 161 163 161 157 151 147 151 155 151 143 138 136 139 144 142 130 97 0 0 3 15 34 37 25 8 352 350 354 345 331 332 336 336 335
4 8 11 13 21 37 59 66 47 32 28 24 17 14 16 14 11 9 8 9 14 26 41 51 63 91 129 149 171 185 182 179 177 182 196 209 216 214 208 201 202 211 211 208 206 197 174 157 154 154 151 150 149 146 144 144 147 148 144 137 132 131 130 130 131 122 59 339 337 0 31 49 44 33 25 11 356 350 344 328 331 340 344 341 337
7 9 12 26 54 77 80 62 38 33 33 27 20 20 23 18 16 18 18 17 21 31 44 48 39 40 79 116 155 180 173 169 159 137 125 127 170 212 206 203 198 186 177 171 163 152 141 135 137 140 138 138 140 142 140 140 143 145 142 138 135 135 130 114 82 20 341 331 342 25 74 67 45 37 28 9 347 335 334 338 346 350 346 339 338
14 11 25 56 76 79 65 45 32 34 34 28 24 27 28 26 27 29 27 25 25 29 42 51 33 8 15 21 19 90 133 145 141 119 103 95 88 136 159 161 155 150 149 149 149 148 143 136 133 134 133 133 135 139 138 136 139 142 139 132 127 119 103 84 71 59 41 23 18 20 22 12 16 128 101 351 334 348 353 351 352 351 344 339 340
9 12 51 65 64 60 55 47 40 39 37 32 31 32 31 31 34 34 35 37 38 38 46 59 59 53 51 31 24 72 107 119 120 113 109 111 117 122 127 131 133 133 132 133 139 144 143 135 128 126 125 125 129 132 131 128 130 128 111 96 99 106 105 93 72 58 49 34 20 17 16 7 1 170 168 201 341 356 358 355 350 346 341 336 335
354 42 82 70 43 45 70 79 67 50 41 36 36 39 41 41 39 38 42 50 55 59 64 71 76 83 88 91 95 98 100 103 107 109 110 109 109 111 114 118 122 124 123 124 128 132 133 131 127 124 122 122 124 123 118 115 115 108 96 96 105 110 105 80 44 38 39 30 23 27 23 15 58 163 168 2 357 358 356 353 347 343 340 335 332
76 95 106 107 90 84 97 113 105 63 51 49 49 52 54 53 49 51 58 63 65 70 74 78 82 86 87 90 94 95 94 96 98 100 101 101 102 104 108 112 116 117 118 119 121 123 123 124 122 121 120 119 119 119 118 118 120 118 113 110 108 83 24 0 2 7 10 10 12 22 25 29 92 150 155 15 9 4 357 351 346 343 342 339 336
14 24 83 132 117 95 104 123 123 90 68 65 65 65 65 64 64 68 74 75 76 77 77 79 81 83 84 88 91 92 93 94 96 97 97 98 99 102 104 108 110 112 113 114 115 114 112 111 110 111 113 116 121 125 124 117 112 111 107 95 52 347 335 344 355 352 344 340 352 6 22 52 103 129 104 33 19 8 354 344 342 343 346 346 342
355 36 107 125 113 100 112 135 144 135 100 81 78 75 72 72 75 79 83 84 84 83 82 82 83 83 84 87 89 91 93 94 95 96 97 96 96 96 98 100 103 105 105 105 104 103 104 106 106 109 117 124 125 123 116 106 100 97 74 25 0 351 353 357 356 350 344 340 345 355 9 47 103 117 85 31 15 0 348 342 341 346 350 352 352
74 99 111 102 97 102 73 51 141 175 157 111 95 88 82 81 86 91 92 91 90 88 87 87 88 89 89 89 90 92 95 96 96 96 96 94 91 89 88 89 93 97 98 98 98 100 104 107 109 118 132 137 133 126 117 106 97 87 50 19 21 25 21 15 5 359 359 0 356 358 8 40 93 97 54 18 3 356 352 347 344 347 352 356 359
91 96 82 60 86 109 76 59 83 148 166 148 121 105 96 95 102 106 104 99 95 92 89 88 89 92 93 94 94 96 99 100 99 99 99 98 95 92 90 91 95 97 97 99 103 107 111 113 117 127 137 139 133 120 104 90 84 80 67 58 55 49 40 33 25 19 16 16 13 17 37 60 68 59 44 27 8 359 356 352 345 345 353 2 5
90 49 45 59 110 121 89 71 84 111 130 133 130 124 116 112 114 119 118 109 102 99 98 97 96 96 94 94 96 100 104 108 108 105 103 103 103 101 99 99 99 96 96 98 103 107 110 116 123 127 127 121 107 95 91 93 95 93 80 68 59 48 39 35 29 22 21 24 28 38 53 55 48 43 35 23 8 357 351 348 344 345 354 5 6
Height
799 801 802 803 805 806 808 810 811 812 814 817 819 820 822 823 825 827 828 829 830 831 832 834 835 837 839 840 841 842 843 844 845 846 847 848 849 850 851 852 853 853 853 854 853 853 853 852 853 853 853 853 853 853 853 853 853 852 853 853 853 854 855 856 858 860 861 862 862 863 863 864 864 865 865 864 864 864 864 864 865 864 864 864 864
800 801 802 803 805 807 810 812 813 814 815 817 819 821 822 823 825 827 828 829 830 830 831 833 835 837 838 840 841 842 843 844 846 846 847 849 850 851 852 852 853 853 853 853 853 853 853 853 853 853 853 853 853 854 854 854 854 854 854 854 855 856 856 857 858 859 860 861 862 863 863 863 864 864 864 864 863 863 864 864 864 864 864 864 864
802 803 803 804 806 808 811 813 814 815 817 818 819 821 822 823 824 826 828 829 830 830 831 832 834 836 838 840 841 843 844 845 846 846 847 849 849 850 851 851 852 852 852 852 853 853 853 853 853 853 854 854 854 854 855 855 855 854 855 856 857 857 858 858 858 859 861 862 863 863 863 863 863 863 863 863 863 863 864 864 864 864 864 864 865
803 804 805 807 807 810 812 813 815 817 818 819 820 821 822 823 825 827 828 829 829 830 831 832 834 836 838 839 841 842 843 844 845 846 847 848 848 849 849 850 850 851 852 852 852 852 852 852 853 853 853 853 853 854 855 855 855 855 856 857 857 858 858 859 859 860 861 862 863 863 863 863 863 863 863 864 864 864 864 863 864 864 865 865 864
803 804 807 808 808 810 811 813 815 816 817 819 821 822 823 824 825 827 828 829 829 830 831 833 834 835 837 838 839 840 841 842 843 844 846 847 847 848 849 849 850 850 851 851 851 851 851 852 852 852 853 853 853 854 854 855 856 856 856 857 857 858 858 859 860 860 861 862 863 863 863 863 863 863 864 864 864 864 864 864 864 864 864 864 864
803 805 807 807 807 808 809 811 813 815 816 819 821 822 823 824 825 827 828 829 830 830 831 833 834 835 836 837 838 839 840 842 842 843 844 845 846 847 847 848 849 849 849 850 850 850 851 851 852 852 852 852 853 853 854 855 855 856 857 857 857 858 858 859 859 860 861 862 862 863 863 863 863 863 864 864 863 863 864 864 864 864 864 864 864
802 803 805 805 806 808 810 812 813 815 816 818 821 823 823 824 825 826 828 829 829 830 830 831 832 833 835 836 837 839 840 841 841 842 842 843 844 845 845 846 847 847 848 848 849 849 850 850 851 851 851 852 853 853 854 855 855 856 857 857 858 858 858 859 860 860 861 862 862 863 863 863 863 863 863 863 863 863 863 864 864 864 864 864 864
802 804 806 806 807 809 811 813 814 816 818 819 821 823 824 825 825 826 827 828 828 829 829 830 831 833 834 835 837 838 839 840 841 840 841 842 843 844 844 844 844 845 846 846 847 848 848 849 849 850 850 851 852 853 853 854 855 856 857 857 858 858 859 860 860 861 861 862 862 862 862 862 862 862 862 862 862 862 863 863 863 864 864 863 863
804 806 807 807 807 808 811 812 814 817 819 819 819 822 824 825 825 825 826 827 827 827 828 829 830 831 833 835 836 837 839 839 839 840 840 841 842 842 843 843 843 843 843 844 846 847 847 847 848 848 849 850 851 852 853 854 854 855 856 856 857 857 858 859 860 861 861 862 862 862 862 862 862 862 861 861 862 862 862 862 862 862 862 862 862
803 805 806 806 807 808 810 811 812 815 817 817 817 819 822 823 823 824 825 826 826 826 827 828 829 831 832 834 835 836 837 838 838 839 839 840 840 841 841 841 841 841 841 842 843 845 846 847 847 847 848 849 851 852 852 853 854 855 855 856 856 857 858 859 859 860 861 861 861 862 862 861 861 861 861 861 861 861 861 862 861 861 861 861 861
803 804 805 806 807 809 810 811 812 814 815 816 817 818 820 822 823 824 825 826 826 826 826 827 829 831 832 833 834 835 836 837 837 838 838 839 839 839 839 840 839 839 839 840 842 843 845 845 846 846 847 848 850 851 852 853 853 854 854 855 856 856 857 858 858 859 860 861 861 861 861 861 861 861 861 861 861 861 861 861 861 861 861 860 860
802 804 804 806 807 809 810 811 812 814 814 816 817 819 820 822 824 824 824 825 826 825 826 827 828 830 831 832 833 834 835 836 836 837 837 837 838 838 838 838 838 838 838 839 841 842 843 844 845 846 846 848 849 850 851 852 852 853 853 854 855 855 856 857 857 858 859 860 860 861 861 861 862 862 862 861 861 861 861 861 861 860 860 860 860
800 802 804 806 807 808 810 811 813 814 815 815 817 819 821 822 824 824 824 825 825 825 826 827 828 829 830 831 832 833 834 834 835 835 835 836 836 837 837 838 838 838 838 839 840 841 842 843 844 845 846 848 849 850 850 851 851 852 852 853 854 855 855 856 856 857 858 859 860 860 861 861 861 861 861 861 861 861 861 860 860 860 860 859 859
801 802 804 807 808 809 810 810 812 815 816 817 818 820 821 822 823 823 824 824 825 825 826 826 828 829 830 831 831 831 832 832 833 833 834 834 835 836 837 837 838 838 839 839 839 840 841 843 844 845 846 847 848 849 850 850 850 851 852 852 853 854 855 855 856 856 857 858 858 859 860 860 861 861 861 861 860 860 860 859 859 858 858 857 857
806 807 808 809 810 811 812 814 815 816 817 818 819 820 821 821 821 821 821 822 823 824 825 826 828 829 829 830 830 830 830 831 831 832 833 834 835 836 836 837 837 838 838 839 839 840 841 842 843 844 846 847 848 848 849 849 850 850 851 852 853 854 854 855 855 856 856 857 858 858 859 860 860 860 860 860 859 859 859 858 858 857 856 856 855
813 814 815 816 816 816 816 818 818 818 819 819 819 820 820 820 820 820 821 822 823 823 825 826 827 828 828 828 829 829 829 830 831 831 832 833 834 835 836 836 837 838 838 839 839 840 841 842 843 845 846 846 847 848 848 849 849 850 851 851 852 853 853 854 855 855 856 857 858 859 859 859 860 859 859 858 858 858 858 857 857 856 855 855 854
813 815 816 817 818 819 819 819 820 820 820 820 820 820 820 820 821 821 821 822 822 823 824 825 826 826 827 827 827 828 828 829 830 831 832 833 834 835 835 836 836 837 838 839 839 840 842 843 843 845 846 847 847 848 848 849 849 849 850 850 851 852 852 853 854 855 856 857 858 858 859 859 859 858 858 857 857 857 856 856 856 855 854 853 852
813 814 815 816 817 818 819 820 821 822 822 822 821 821 820 821 821 821 821 821 822 822 823 824 825 825 825 826 827 827 828 829 830 831 832 832 833 834 835 835 836 837 838 839 840 840 842 843 844 845 846 846 847 847 848 848 848 848 849 850 851 851 852 853 854 855 856 857 857 858 858 858 857 857 857 856 856 855 855 855 855 854 853 853 852
815 815 817 817 817 817 818 819 821 821 822 823 822 822 821 821 821 821 821 821 821 822 822 823 824 824 825 826 826 827 828 829 829 830 831 832 833 834 835 835 835 836 837 838 839 840 841 842 843 844 845 845 846 847 847 847 848 848 848 849 850 851 852 853 854 854 855 856 856 857 856 856 856 856 856 855 854 854 854 855 855 854 853 853 852
818 818 818 818 818 818 818 818 819 820 821 822 822 823 823 822 821 821 821 821 821 821 822 822 822 823 824 825 826 827 828 828 829 830 830 832 833 834 835 835 835 836 836 837 838 839 840 841 842 843 844 844 845 846 847 847 848 848 849 849 851 852 852 853 853 854 854 855 855 855 856 856 855 855 854 853 853 853 853 854 854 853 853 852 852
820 819 819 819 819 819 819 819 819 819 820 821 821 822 822 822 822 821 821 822 821 822 822 822 822 822 823 823 824 825 826 827 828 829 830 831 832 833 834 834 834 834 835 835 837 838 839 840 841 842 843 844 845 845 846 847 848 848 849 850 851 852 852 853 853 853 853 854 854 854 855 855 854 853 852 852 852 852 852 853 853 853 852 852 851
821 821 821 821 821 821 821 821 820 820 820 820 820 820 820 820 820 820 820 820 820 821 821 821 821 821 821 822 823 823 825 826 827 828 829 830 831 832 833 833 832 833 833 834 835 836 837 839 840 841 842 843 844 845 845 846 847 848 849 849 850 851 851 852 852 852 852 852 853 853 854 853 852 852 852 852 852 853 853 853 853 853 852 851 850
823 823 823 823 823 823 823 823 822 822 821 821 820 819 819 819 819 819 819 818 818 819 819 820 820 820 820 821 821 822 823 824 825 826 827 828 829 830 831 832 832 832 832 832 834 835 836 837 838 840 842 843 844 845 845 846 846 847 848 849 849 850 850 850 851 851 851 852 852 852 852 852 852 852 852 852 852 853 853 853 853 852 851 850 849
825 824 824 824 824 824 824 824 823 822 822 821 821 820 819 819 818 818 818 818 817 817 817 818 819 819 819 820 820 821 822 822 823 824 825 826 828 828 830 831 831 831 831 831 832 833 834 836 837 839 841 842 843 844 845 845 846 847 848 848 849 849 849 850 850 851 851 851 852 852 852 851 851 851 851 851 852 852 852 851 851 850 849 848 848
825 825 825 824 824 824 824 823 823 822 822 821 821 820 820 819 818 818 817 817 817 816 816 816 816 817 818 818 819 820 820 821 822 822 823 824 826 827 828 829 830 831 831 831 832 832 834 835 837 838 840 841 842 843 844 845 846 847 847 848 848 849 849 849 850 850 851 851 851 852 851 851 851 851 851 851 850 850 849 849 848 848 847 845 845
826 826 825 825 824 824 823 823 822 822 821 821 820 820 820 819 818 817 816 816 815 815 816 816 816 815 816 816 817 818 818 819 819 820 821 822 823 824 826 828 829 830 830 831 831 833 834 835 836 838 839 840 842 843 844 845 846 846 847 847 848 848 848 849 850 850 850 851 851 851 851 851 851 850 850 849 849 848 847 847 846 845 844 843 842
826 826 825 825 824 824 823 823 822 822 821 821 820 819 819 818 817 816 815 815 814 813 813 814 814 815 814 815 816 816 815 816 817 817 818 819 820 822 823 825 828 829 829 830 831 832 834 835 836 838 839 840 841 842 843 844 845 845 846 847 847 848 848 849 849 849 850 850 850 851 851 851 850 850 849 848 848 847 846 845 844 844 843 842 840
826 825 825 825 824 824 823 822 822 821 821 820 820 819 818 817 816 815 814 814 814 813 812 811 811 811 812 814 815 815 815 816 817 816 816 816 817 819 821 824 826 828 828 830 832 833 834 835 836 837 838 839 841 842 843 844 844 845 846 846 846 847 848 848 849 849 849 850 850 850 850 850 849 849 848 847 847 846 845 844 844 843 842 841 840
825 825 824 824 823 823 822 821 820 820 819 819 818 818 817 816 815 813 812 812 812 811 811 809 809 809 809 811 813 814 814 815 816 817 817 817 818 818 820 823 826 827 828 830 832 833 834 835 836 837 838 839 840 841 842 843 844 845 845 845 846 846 847 847 848 848 849 849 849 849 849 849 848 848 847 846 845 845 844 843 843 842 841 840 839
825 825 824 824 823 822 821 821 820 819 818 817 816 815 814 814 814 812 810 809 808 807 807 807 807 807 807 807 809 810 811 812 812 813 816 818 819 818 818 821 824 826 828 830 831 831 833 834 836 837 838 838 839 840 841 842 843 844 844 845 845 846 846 846 847 847 848 848 848 848 848 847 847 846 846 845 844 843 843 842 842 841 840 839 838
825 825 824 824 823 822 822 821 820 819 818 817 816 815 813 812 812 812 811 809 806 805 804 804 804 804 804 804 804 805 806 807 808 808 810 813 815 815 816 817 820 823 826 828 829 830 832 835 837 837 837 838 838 839 840 840 841 843 843 844 845 845 845 846 846 846 847 847 847 847 846 846 846 845 845 844 843 842 842 841 840 840 839 838 837
826 825 825 824 823 823 822 821 820 820 819 818 817 816 815 813 811 810 809 809 807 805 803 802 802 801 801 802 802 802 803 804 805 805 806 808 810 812 813 814 816 819 822 825 826 828 831 834 835 836 836 837 837 837 838 839 840 841 842 843 844 844 844 845 845 845 846 846 846 845 845 845 845 844 843 843 842 841 840 840 839 838 838 837 836
826 826 825 825 824 823 823 822 821 820 819 819 817 816 815 814 812 810 808 807 806 805 804 802 802 801 800 800 801 801 802 802 803 804 805 807 808 809 810 811 813 816 819 821 824 827 829 831 833 834 835 835 836 836 837 838 839 840 841 842 842 843 844 844 844 844 845 845 845 844 844 844 844 843 842 841 840 840 839 839 838 838 837 836 836
827 827 826 826 825 824 823 822 822 821 820 819 818 816 815 814 813 811 809 807 806 805 804 803 802 801 800 800 800 801 801 802 802 804 805 806 807 807 808 810 812 813 815 817 820 824 827 829 830 832 833 834 834 835 836 837 838 839 840 841 841 842 843 843 842 843 843 843 843 843 843 843 843 842 841 841 840 839 838 838 837 837 836 836 835
828 827 827 826 825 824 824 823 822 821 820 819 818 816 815 814 812 811 809 808 807 805 804 803 802 801 801 800 800 800 801 801 802 803 804 805 806 806 806 808 810 811 812 814 817 820 824 827 828 829 831 832 833 834 835 836 837 838 839 840 840 841 841 841 841 842 842 842 842 842 842 842 842 841 841 840 839 838 838 837 837 836 836 835 834
827 827 826 826 825 824 824 823 822 822 821 819 818 817 816 814 813 811 810 809 807 806 805 804 803 802 802 801 801 800 801 802 803 803 804 805 806 806 805 807 810 811 812 814 817 819 821 824 826 827 828 830 831 833 834 834 836 837 838 839 839 840 840 840 841 841 842 842 842 841 841 841 841 840 840 839 839 838 837 836 836 836 835 835 834
827 827 826 825 825 824 823 823 822 822 821 820 819 817 816 815 813 812 811 810 808 806 804 803 803 802 801 801 801 801 801 802 803 804 805 806 806 806 806 807 810 811 811 813 815 818 820 821 823 824 825 827 829 831 832 833 835 836 837 838 839 839 839 840 840 841 841 841 841 840 840 840 840 840 839 839 838 838 837 837 836 836 835 834 833
827 827 826 825 824 823 823 823 823 822 821 820 819 818 816 814 813 812 811 810 808 806 804 803 803 803 802 800 800 801 801 801 802 803 804 806 806 807 807 808 808 809 810 812 814 817 818 820 822 823 824 827 829 830 832 833 834 835 837 837 838 838 839 839 840 840 840 840 840 840 839 839 839 839 839 838 838 837 837 836 836 835 834 833 832
827 827 826 825 824 823 824 823 823 823 821 820 819 817 816 815 813 812 811 810 808 807 804 802 802 802 802 801 801 801 801 801 801 802 804 806 807 807 807 808 809 810 811 813 815 816 818 820 821 822 824 826 828 830 831 832 834 835 836 836 837 837 838 839 839 839 840 840 839 839 839 839 839 839 838 838 838 837 837 836 835 834 833 832 831
827 826 825 824 824 824 824 824 824 823 822 820 819 817 816 815 813 812 811 810 808 807 805 803 802 802 801 801 801 801 801 801 802 803 804 806 807 807 807 809 810 811 812 814 815 817 819 820 821 821 823 825 827 829 831 832 834 835 835 835 836 837 838 838 839 839 839 839 839 838 838 838 838 838 838 838 838 837 836 836 835 834 833 831 830
826 826 825 824 824 824 824 824 824 823 822 821 819 817 816 815 813 812 811 809 808 807 806 805 804 803 802 802 802 802 802 802 803 804 805 806 807 807 808 809 811 812 813 814 816 817 819 820 821 822 822 824 825 828 830 832 833 834 835 835 836 837 838 839 839 839 839 838 838 838 838 838 838 838 838 837 837 837 836 835 834 833 832 831 829
826 826 825 825 824 824 824 824 824 823 822 821 819 818 816 815 814 812 811 809 808 807 806 805 805 804 804 804 804 803 802 801 803 805 805 806 807 807 808 809 811 812 813 814 815 817 819 820 822 823 824 824 825 827 829 831 833 834 835 835 836 837 838 838 838 838 838 838 837 837 837 837 837 837 837 837 837 836 835 835 833 832 831 830 828
827 826 826 825 825 824 824 824 824 823 822 821 820 818 817 815 814 813 811 810 809 808 807 806 806 805 805 805 805 804 802 802 803 804 805 805 806 807 807 809 811 812 813 815 816 817 819 820 822 824 825 826 827 828 830 831 833 834 835 836 836 837 838 838 838 838 838 837 837 836 836 836 836 836 836 836 836 835 835 834 833 832 830 829 828
827 826 826 826 825 825 825 825 824 823 822 821 820 819 817 816 814 813 812 811 809 808 808 807 806 806 805 805 805 805 804 803 803 804 805 806 807 808 808 810 811 812 814 815 816 818 819 821 823 825 826 827 828 829 830 832 833 835 836 836 837 838 838 838 838 838 837 837 836 836 836 836 836 835 835 835 835 835 834 833 832 831 830 828 827
827 826 826 826 825 825 825 824 824 823 822 822 821 819 818 817 815 814 813 812 811 810 809 808 807 807 807 806 806 807 806 806 805 806 807 808 809 809 810 811 812 813 814 816 818 819 820 822 824 825 826 828 829 830 831 833 834 835 836 837 838 838 839 839 838 838 837 837 836 836 836 835 835 835 835 835 834 834 833 832 831 830 829 828 826
827 826 826 826 825 825 825 825 824 823 823 822 821 820 819 818 817 816 815 814 813 812 811 810 810 809 809 809 809 809 808 808 808 809 810 811 811 812 813 813 814 815 817 818 820 821 822 823 825 826 827 828 830 831 832 834 835 836 837 838 838 839 839 839 838 837 837 837 836 836 836 835 834 834 834 834 834 833 832 831 831 829 828 827 826
826 826 826 826 825 825 825 825 824 824 823 823 822 821 820 819 819 818 818 817 816 815 814 813 813 813 812 812 812 811 811 811 812 812 813 814 815 815 816 816 817 818 819 820 821 822 824 825 826 827 828 830 831 832 834 835 836 837 837 838 839 839 838 838 837 837 836 836 836 835 835 834 834 834 834 834 833 833 832 831 830 828 827 826 825
826 826 826 825 825 825 825 825 825 825 824 823 823 822 822 821 821 821 820 819 818 818 817 817 816 816 815 815 815 815 814 815 815 815 816 817 818 819 819 820 820 821 821 822 823 824 825 827 828 829 830 831 832 834 835 836 837 837 838 838 839 838 838 837 837 836 836 836 835 835 834 834 834 833 833 833 833 832 831 830 829 827 827 825 824
825 825 825 825 825 825 825 824 824 824 824 824 824 823 823 823 823 823 822 822 821 820 820 820 819 819 819 818 818 818 818 817 818 818 819 819 820 821 821 822 822 823 824 824 825 826 827 828 829 830 832 833 834 835 836 836 837 838 838 838 838 838 837 837 836 836 835 835 834 834 834 833 833 833 833 833 832 832 831 829 828 827 826 825 824
825 825 825 825 825 825 825 824 824 824 824 824 824 824 824 824 824 824 824 824 823 823 823 822 822 822 822 821 821 821 821 820 821 821 821 822 822 823 823 824 824 825 825 826 827 828 828 829 831 832 833 834 835 836 836 837 837 838 838 838 838 837 837 836 836 835 835 834 833 833 833 833 833 832 832 832 831 831 830 829 827 826 825 824 823
825 825 825 825 825 825 825 825 824 824 825 825 824 824 824 825 825 826 826 826 825 825 825 825 824 824 824 824 824 823 823 823 823 823 824 824 825 825 825 825 826 826 827 828 828 829 830 831 832 833 834 835 836 836 837 837 838 838 838 838 838 837 836 836 835 834 834 833 833 833 833 832 832 832 831 831 831 830 829 828 827 826 825 824 823